Regional Weather Roundup
Issued by NWS Cleveland, OH

Home | Current Version | Previous Version | Graphics & Text | Print | Product List | Glossary On
Versions: 1 2 3 4 5 6 7 8 9 10 11 12 13 14 15 16 17 18 19 20 21 22 23 24 25 26 27 28 29 30 31 32 33 34 35 36 37 38 39 40 41 42 43 44 45 46 47 48 49 50
000
ASUS41 KCLE 040900
RWRCLE
OHIO REGIONAL WEATHER ROUNDUP
NATIONAL WEATHER SERVICE WILMINGTON, OH
500 AM EDT MON MAY 04 2015

NOTE: "FAIR" INDICATES FEW OR NO CLOUDS BELOW 12,000 FEET WITH NO
SIGNIFICANT WEATHER AND/OR OBSTRUCTIONS TO VISIBILITY.

OHZ001>008-015>018-024>027-034-035-043-044-041000-
   NORTHWEST OHIO

CITY           SKY/WX    TMP DP  RH WIND       PRES   REMARKS
DEFIANCE       CLOUDY    62  48  60 S7        30.04R
FINDLAY        CLEAR     62  47  57 S13       30.06R
TOLEDO EXPRESS PTCLDY    63  46  54 S8        30.04R
TOLEDO EXEC    PTCLDY    63  45  51 S9        30.05S
LIMA           PTCLDY    61  47  59 S9        30.07S
$$

OHZ009>014-019>023-028>033-038-089-041000-
   NORTHEAST OHIO

CITY           SKY/WX    TMP DP  RH WIND       PRES   REMARKS
CLE-HOPKINS    PTCLDY    62  43  49 S10       30.11R
CLE-LAKEFRONT  CLEAR     64  43  46 S12       30.07S
CUY CO. ARPT   NOT AVBL
LORAIN-ELYRIA  PTCLDY    58  45  62 S8        30.09R
ASHTABULA      CLEAR     57  42  57 S7        30.10F
AKRON-CANTON   PTCLDY    57  42  57 S5        30.13R
WOOSTER        NOT AVBL
MANSFIELD      CLEAR     56  44  64 S7        30.11S
YOUNGSTOWN     PTCLDY    60  40  47 S7        30.12S
$$

OHZ042-051>053-060>062-070>072-077>081-041000-
  SOUTHWEST OHIO

CITY           SKY/WX    TMP DP  RH WIND       PRES   REMARKS
CINC-COVINGTON PTCLDY    58  48  69 S7        30.12R
CINC-LUNKEN    CLEAR     51  50  96 CALM      30.12S
HAMILTON       CLEAR     56  49  77 E3        30.11F
DAYTON         NOT AVBL
WRIGHT-PAT AFB CLEAR     58  47  67 SE2       30.10S
DAYTON GENERAL CLEAR     57  47  69 S8        30.10S
WILMINGTON     CLEAR     57  44  62 S5        30.12S
$$

OHZ036-037-039>041-045>050-054>059-063>069-073>076-082>088-041000-
  CENTRAL AND SOUTHEAST OHIO

CITY           SKY/WX    TMP DP  RH WIND       PRES   REMARKS
COLUMBUS       CLEAR     53  48  83 CALM      30.11S
OSU AIRPORT    CLEAR     57  44  62 S5        30.11S
BOLTON FIELD   NOT AVBL
RICKENBACK AFB NOT AVBL
NEWARK         CLEAR     47  45  93 CALM      30.12S
MARION         CLEAR     55  44  66 S8        30.10S
LANCASTER      CLEAR     49  45  86 CALM      30.13S
ZANESVILLE     CLEAR     49  44  83 CALM      30.14R
NEW PHILLY     CLEAR     50  44  80 SE3       30.14S HAZE
$$



USA.gov is the U.S. government's official web portal to all federal, state and local government web resources and services.